Location: *
(46.3500°N, 10.9000°E)
Time: 23:04:03
(UTC+00:00)

Explorer 7 - Pass Details

Date: 26 April 2021
Orbit: 484 x 677 km, 50.3° (Epoch: 06 May)

Event Time Altitude Azimuth Distance (km) Brightness Sun altitude
Rises 16:00:44 0° 205° (SSW) 2,546 10.6 22.5°
Reaches altitude 10° 16:03:12 10° 190° (S) 1,684 9.5 22.1°
Maximum altitude 16:06:10 22° 138° (SE) 1,143 8.2 21.6°
Drops below altitude 10° 16:09:15 10° 86° (E) 1,752 8.9 21.1°
Sets 16:11:52 0° 72° (ENE) 2,679 9.8 20.6°
